TIME,DELAY(SENSOR),PRES,T(CTD),SAL,OXYGEN,RAWTEMP,T(OPTODE),TCPHASE,TURBIDITY,TURBIDITY_GAIN,FLUOR,BETA,CDOM,ED411.5,ED443.8,ED489.6,PAR,COMP,TILT,TILTY(TILT),CHECK
1340549121,6466,246.8500061035156200,5.9194002151489260,34.8885993957519500,326.5895080566406000,624.0479736328125000,5.8900198936462400,33.1124992370605500,16,3,49,107,64,2147634792,2147396026,2147278303,2148322294,1741,0,-4,1175
1340549182,6470,243.1100006103515600,5.9015002250671390,34.8833007812500000,326.3594970703125000,624.1052856445312000,5.8881721496582030,33.1215095520019500,16,3,48,108,62,2147637517,2147394189,2147282801,2148315793,1465,0,-4,12828
1340549243,6469,239.3300018310547000,5.9285001754760740,34.8846015930175800,319.9865112304687500,623.4249877929688000,5.9100952148437500,33.3401489257812500,16,3,48,110,64,2147634633,2147394587,2147281759,2148320113,963,0,-4,55906
1340549304,6469,235.6000061035156200,5.9672999382019040,34.8862991333007800,318.9684143066406000,622.2717895507812000,5.9472498893737790,33.3573493957519500,10,3,48,109,64,2147635501,2147394308,2147282976,2148318866,413,0,-4,15655
1340549365,6466,231.9199981689453000,6.0128002166748050,34.8872985839843750,320.9486083984375000,620.9072265625000000,5.9911961555480960,33.2605781555175800,16,3,49,105,64,2147640063,2147393073,2147282216,2148318431,3221,0,-4,16655
1340549426,6468,228.3000030517578000,5.9506001472473145,34.8760986328125000,327.1982116699219000,622.4968261718750000,5.9400010108947750,33.0634193420410160,16,3,48,114,64,2147638810,2147394509,2147283186,2148316548,3042,0,-4,48873
1340549487,6466,224.8300018310547000,5.9636998176574710,34.8749008178710940,332.2663879394531000,622.1889038085938000,5.9499211311340330,32.8788108825683600,16,3,49,107,63,2147634006,2147395341,2147283213,2148318271,2820,0,-4,57497
1340549548,6465,221.5000000000000000,6.0915999412536620,34.8894996643066400,329.5945129394531000,618.2609252929688000,6.0763659477233890,32.9037895202636700,16,3,49,109,64,2147638353,2147393709,2147283821,2148317119,2685,0,-4,21757
1340549609,6470,218.3600006103515600,6.1392998695373535,34.8911018371582000,324.6285095214844000,617.1030273437500000,6.1136131286621090,33.0607490539550800,16,3,48,109,64,2147635442,2147394938,2147284383,2148321211,2229,0,-4,13032
1340549670,6467,215.3699951171875000,6.1381998062133790,34.8917999267578100,323.2069091796875000,616.9227294921875000,6.1194109916687010,33.1085815429687500,16,3,50,106,64,2147637494,2147395866,2147287912,2148319204,2078,1,-4,63902
1340549734,6503,212.3899993896484400,6.1203999519348145,34.8870010375976560,323.1288146972656000,617.3590698242188000,6.1053748130798340,33.1188697814941400,16,3,48,107,64,2147638481,2147396081,2147285837,2148317626,1795,0,-4,14344
1340549795,6468,209.6699981689453000,6.1799001693725590,34.8922996520996100,323.5122070312500000,615.8333740234375000,6.1544361114501950,33.0784492492675800,16,3,49,105,64,2147639003,2147397307,2147285087,2148315322,1666,0,-4,51250
1340549858,6469,207.0200042724609400,6.1715998649597170,34.8847999572753900,325.4260864257812500,616.1024780273438000,6.1457819938659670,33.0145111083984400,15,3,48,106,64,2147636346,2147395698,2147284964,2148321256,1609,0,-4,34594
1340549919,6467,204.6699981689453000,6.1206998825073240,34.8722000122070300,327.5786132812500000,617.2946166992188000,6.1074519157409670,32.9584884643554700,16,3,48,108,64,2147638038,2147396333,2147286779,2148318801,1370,0,-4,18411
1340550014,6467,200.5000000000000000,6.2547998428344730,34.8861999511718750,328.5867919921875000,613.6254882812500000,6.2253880500793460,32.8586502075195300,16,3,50,106,63,2147636945,2147393101,2147278604,2148317540,736,0,-4,28658
1340550075,6469,197.1499938964843800,6.2428998947143555,34.8821983337402340,327.9525146484375000,613.6453247070312000,6.2247519493103030,32.8815612792968750,16,3,48,106,64,2147637503,2147393508,2147282756,2148319318,160,1,-4,60491
1340550138,6469,193.7400054931640600,6.2761998176574710,34.8824005126953100,323.0152893066406000,612.6804809570312000,6.2557430267333980,33.0416183471679700,16,3,50,106,64,2147635629,2147394308,2147286194,2148322253,2973,0,-4,28594
1340550199,6467,190.4900054931640600,6.2498002052307130,34.8736991882324200,321.9396972656250000,613.4445190429688000,6.2312049865722660,33.0937995910644500,16,3,50,108,64,2147638692,2147392534,2147290143,2148319396,2610,0,-4,18009
1340550262,6468,187.1900024414062500,6.2342000007629395,34.8678016662597660,320.7778015136719000,614.0697021484375000,6.2111191749572750,33.1469306945800800,15,3,50,108,64,2147635213,2147396671,2147290212,2148319592,2168,0,-4,59501
1340550323,6469,183.9600067138672000,6.2136998176574710,34.8576011657714840,323.3891906738281000,615.0670776367188000,6.1790661811828610,33.0698089599609400,16,3,48,111,64,2147638038,2147397279,2147285759,2148318678,2005,0,-4,10536
1340550386,6467,180.6600036621093800,6.1461000442504880,34.8438987731933600,327.2372131347656000,616.4243774414062000,6.1354351043701170,32.9553184509277340,16,3,50,112,64,2147638322,2147395689,2147290390,2148318870,1628,0,-4,20764
1340550447,6469,177.3600006103515600,6.1444001197814940,34.8367996215820300,335.0846862792969000,616.6580810546875000,6.1279177665710450,32.6838417053222660,15,3,50,112,62,2147636945,2147394994,2147287382,2148320849,1075,0,-4,3515
1340550510,6469,173.8200073242187500,6.1445999145507810,34.8333015441894500,338.9151000976562500,616.6157226562500000,6.1292819976806640,32.5512809753418000,16,3,50,114,62,2147636379,2147393001,2147289544,2148318953,509,1,-4,14299
1340550571,6468,170.1699981689453000,6.1578998565673830,34.8317985534668000,343.1817932128906000,616.1804809570312000,6.1432781219482420,32.3992385864257800,16,3,50,112,62,2147634636,2147396131,2147287359,2148317443,3376,0,-4,6133
1340550634,6469,166.1900024414062500,6.1642999649047850,34.8291015625000000,345.4642028808594000,616.0770263671875000,6.1466050148010250,32.3205413818359400,16,3,50,117,63,2147638664,2147395441,2147293188,2148318614,3099,0,-4,50340
1340550695,6467,162.1900024414062500,6.1774001121521000,34.8269996643066400,343.2199096679687500,615.6998291015625000,6.1587300300598145,32.3895416259765600,16,3,50,115,62,2147637741,2147394582,2147298989,2148319912,2631,0,-4,3506
1340550781,6470,156.9400024414062500,6.2392997741699220,34.8319015502929700,332.4895019531250000,613.9522094726562000,6.2148928642272950,32.7271308898925800,16,3,50,109,64,2147640895,2147396977,2147297988,2148319894,2211,0,-4,64312
1340550842,6468,153.8899993896484400,6.2607998847961430,34.8342018127441400,326.6236877441406000,613.1770019531250000,6.2397980690002440,32.9205894470214840,16,3,48,105,63,2147637608,2147396507,2147303889,2148321005,1966,0,-4,6749
1340550905,6468,150.7200012207031200,6.2543001174926760,34.8329010009765600,323.8229064941406000,613.2606811523438000,6.2371101379394530,33.0225601196289060,16,3,49,109,64,2147641106,2147397402,2147314271,2148321137,1702,0,-4,46971
1340550966,6467,147.5899963378906200,6.2565999031066895,34.8320999145507800,323.5827941894531000,613.2095947265625000,6.2387499809265140,33.0299987792968750,15,3,50,109,64,2147636717,2147399227,2147327062,2148323986,1432,0,-4,28042
1340551029,6469,144.3399963378906200,6.2364001274108890,34.8246994018554700,323.2338867187500000,613.5272216796875000,6.2285480499267580,33.0482597351074200,16,3,50,110,64,2147640269,2147394930,2147335666,2148326472,1198,0,-4,12116
1340551090,6468,141.2100067138672000,6.2423000335693360,34.8213005065918000,321.3952941894531000,613.5751953125000000,6.2270050048828125,33.1159400939941400,16,3,50,108,64,2147638591,2147398746,2147346788,2148325906,1120,0,-4,51877
1340551153,6468,138.1399993896484400,6.1693000793457030,34.8025016784668000,321.4117126464844000,615.8413696289062000,6.1541771888732910,33.1545410156250000,16,3,50,107,64,2147639190,2147398760,2147369284,2148329425,743,0,-4,59656
1340551214,6468,135.2799987792968800,6.1757001876831055,34.8026008605957000,325.5472106933594000,615.5438232421875000,6.1637439727783200,33.0002517700195300,16,3,50,112,63,2147638024,2147403734,2147391391,2148329604,601,0,-4,57796
1340551277,6469,132.4600067138672000,6.2167000770568850,34.8046989440918000,331.1390991210937500,614.5554809570312000,6.1955089569091800,32.7847404479980500,16,3,50,113,63,2147637631,2147400662,2147352731,2148329210,156,1,-4,34614
1340551338,6468,129.8999938964843800,6.2555999755859375,34.8073997497558600,333.5423889160156000,613.5565185546875000,6.2276082038879395,32.6835899353027340,16,3,50,115,64,2147638002,2147406002,2147404040,2148334331,3186,0,-4,9311
1340551401,6468,127.4000015258789000,6.2711000442504880,34.8056983947753900,338.6854858398437500,613.0101928710938000,6.2451548576354980,32.4967613220214840,16,3,50,116,62,2147639460,2147411117,2147439711,2148340369,3028,0,-4,47632
1340551462,6469,125.1200027465820300,6.2824001312255860,34.8035011291503900,344.0539855957031000,612.5626220703125000,6.2595329284667970,32.3073616027832000,16,3,52,118,62,2147638560,2147411300,2147445846,2148338240,3028,0,-4,5751
1340551548,6468,121.5199966430664000,6.2916002273559570,34.8028984069824200,349.0416870117187500,612.1693725585938000,6.2721581459045410,32.1345405578613300,16,3,50,121,63,2147639350,2147417037,2147469850,2148346751,2731,2,-4,45639
1340551609,6468,118.1999969482421900,6.3034000396728520,34.8003997802734400,351.0747070312500000,611.7612915039062000,6.2852611541748050,32.0609817504882800,16,3,52,117,61,2147640736,2147419820,2147492237,2148345266,2546,0,-4,63595
1340551672,6466,114.8399963378906200,6.3140001296997070,34.7979011535644500,351.7128906250000000,611.4805297851562000,6.2942748069763180,32.0352096557617200,16,3,51,119,62,2147640781,2147419290,2147513105,2148352548,2300,0,-4,46491
1340551733,6469,111.6999969482421900,6.3154997825622560,34.7962989807128900,351.8808898925781000,611.3319091796875000,6.2990469932556150,32.0270118713378900,16,3,51,120,62,2147640817,2147421375,2147532260,2148354728,2056,0,-4,57945
1340551796,6467,108.5400009155273400,6.3308000564575195,34.7910995483398440,351.8273010253906000,610.8184204101562000,6.3155307769775390,32.0201988220214840,16,3,52,121,62,2147640964,2147429974,2147556163,2148362303,1807,1,-4,28897
1340551857,6467,105.5999984741211000,6.3545999526977540,34.7876014709472660,352.2474975585937500,610.1008911132812000,6.3385581970214840,31.9941406250000000,16,3,54,125,62,2147639501,2147430719,2147574971,2148365553,1753,2,-4,27336
1340551920,6468,102.7900009155273400,6.3773999214172360,34.7845993041992200,353.0346984863281000,609.5195922851562000,6.3572120666503910,31.9584693908691400,16,3,56,127,62,2147635894,2147438331,2147601563,2148368694,1532,0,-4,11190
1340551981,6468,100.2200012207031200,6.3913002014160160,34.7830009460449200,353.5386047363281000,609.0385131835938000,6.3726477622985840,31.9340095520019530,16,3,56,127,60,2147643002,2147434029,2147585275,2148367505,1454,0,-4,63195
1340552044,6468,97.6999969482421900,6.4088001251220700,34.7799987792968750,354.0611877441406000,608.5413208007812000,6.3885960578918460,31.9086894989013670,16,3,58,130,62,2147643040,2147444172,2147648026,2148382303,1078,0,-4,374
1340552105,6469,95.3600006103515600,6.4226999282836910,34.7788009643554700,353.6033935546875000,608.0490112304688000,6.4043869972229000,31.9150009155273440,16,3,58,126,62,2147641841,2147422426,2147465910,2148351501,721,0,-4,59045
1340552195,6468,91.2699966430664000,6.4510002136230470,34.7737007141113300,353.1451110839844000,607.1790771484375000,6.4322810173034670,31.9150104522705080,16,3,62,127,61,2147643770,2147431675,2147544159,2148363670,161,0,-4,43918
1340552256,6469,87.7500000000000000,6.4685997962951660,34.7727012634277340,353.2774963378906000,606.5853881835938000,6.4513130187988280,31.9007701873779300,16,3,65,130,62,2147647871,2147451661,2147686568,2148395172,3166,0,-4,10193
1340552319,6468,83.9899978637695300,6.4918999671936035,34.7733993530273440,354.7644042968750000,605.8640136718750000,6.4744381904602050,31.8402004241943360,12,3,68,131,62,2147647414,2147456406,2147718998,2148406660,2613,0,-4,39339
1340552380,6468,80.1399993896484400,6.5293998718261720,34.7705001831054700,355.8550109863281000,604.6478881835938000,6.5134048461914060,31.7843494415283200,15,3,76,141,63,2147651053,2147468657,2147782815,2148426015,2429,2,-4,59888
1340552466,6466,75.0699996948242200,6.5703001022338870,34.7666015625000000,357.1388854980469000,603.5385742187500000,6.5489392280578610,31.7244205474853500,14,3,82,144,62,2147655542,2147487931,2147884584,2148456754,2082,2,-4,29457
1340552527,6468,72.0599975585937500,6.5798997879028320,34.7662010192871100,356.9057922363281000,603.1727905273438000,6.5606541633605960,31.7256202697753900,16,3,88,138,62,2147659944,2147509001,2147991921,2148485553,1748,0,-4,5482
1340552590,6466,68.8700027465820300,6.5964999198913570,34.7644004821777340,356.5303955078125000,602.6680908203125000,6.5768151283264160,31.7293090820312500,14,3,87,137,62,2147669631,2147547844,2148176923,2148536617,1571,0,-4,49727
1340552651,6466,65.7099990844726600,6.6272997856140140,34.7615013122558600,355.8833007812500000,601.7213134765625000,6.6071238517761230,31.7341499328613280,16,3,92,144,63,2147682444,2147598115,2148420127,2148600960,1435,0,-4,53443
1340552714,6467,62.5699996948242200,6.6740999221801760,34.7593002319335940,354.9956054687500000,600.2579956054688000,6.6539549827575680,31.7379207611084000,16,3,98,142,62,2147699240,2147654898,2148663039,2148681033,1507,0,-4,22490
1340552775,6468,59.7700004577636700,6.7193999290466310,34.7569007873535160,354.3775939941406000,598.7581787109375000,6.7019309997558590,31.7326698303222660,15,3,106,143,63,2147724154,2147731382,2148981691,2148771807,1488,0,-4,56568
1340552838,6470,57.1300010681152340,6.8165998458862305,34.7560005187988300,353.2703857421875000,596.1292114257812000,6.7859778404235840,31.7243309020996100,16,3,114,142,63,2147744529,2147784598,2149191314,2148853183,1067,2,-4,9547
1340552899,6469,54.9000015258789060,6.8955998420715330,34.7589988708496100,352.0808105468750000,593.0419921875000000,6.8845877647399900,31.7112102508544920,15,3,118,163,63,2147772026,2147858587,2149491354,2148957914,298,0,-4,28850
1340552986,6468,51.6300010681152340,7.0461001396179200,34.7593994140625000,348.2956848144531000,588.0261230468750000,7.0446171760559080,31.7510108947753900,27,3,109,153,62,2147806299,2147935034,2149792539,2149102532,3422,0,-4,20632
1340553047,6468,48.8699989318847660,7.2403001785278320,34.7561988830566400,346.5422058105469000,582.5432739257812000,7.2192749977111820,31.7179298400878900,18,3,128,162,62,2147779336,2147801636,2149096022,2148911730,2666,2,-4,58463
1340553110,6471,46.1500015258789060,7.4762997627258300,34.7527999877929700,349.2802124023437500,575.9149780273438000,7.4300541877746580,31.5187091827392580,22,3,199,197,62,2147727473,2147619697,2148189261,2148624241,1905,2,-4,26611
1340553171,6469,43.5499992370605500,7.6423001289367680,34.7543983459472660,351.9726867675781000,572.1898193359375000,7.5483469963073730,31.3705692291259770,25,3,220,208,62,2147784351,2147759944,2148781531,2148862404,1033,0,-4,25332
1340553234,6469,40.7999992370605500,8.0776996612548830,34.7449989318847660,350.0217895507812500,556.2780151367188000,8.0522480010986330,31.1768798828125000,25,3,276,230,63,2147810939,2147780484,2148740900,2148863560,986,1,-4,3073
1340553295,6469,38.4700012207031250,8.4300003051757810,34.7392997741699200,349.4533081054687500,544.1870727539062000,8.4337120056152340,31.0028800964355470,33,3,342,251,62,2147937010,2148033416,2149648557,2149239606,3137,0,-4,31908
1340553385,6468,34.7999992370605500,8.9245996475219730,34.7327003479003900,349.9841003417969000,529.7600097656250000,8.8873367309570310,30.7601509094238280,38,3,364,315,62,2148596466,2149398618,2154470390,2151340095,2436,0,-4,45486
1340553446,6470,31.3700008392334000,9.2632999420166020,34.7420005798339840,349.7944030761719000,518.4536743164062000,9.2417049407958980,30.5917701721191400,43,3,374,332,62,2149211620,2150405348,2157247835,2152683487,2366,2,-4,64937
1340553509,6471,27.5799999237060550,9.5445995330810550,34.7349014282226560,350.3403015136719000,510.8721923828125000,9.4787921905517580,30.4587001800537100,53,3,658,413,62,2150662523,2152725526,2163094893,2155447446,1569,2,-4,41361
1340553570,6470,23.7099990844726560,9.8044004440307620,34.7332992553710940,349.5549011230469000,500.0559997558594000,9.8163127899169920,30.3201808929443360,54,3,436,401,63,2149841686,2150542568,2154627208,2151567862,1264,0,-4,58451
1340553657,6471,18.9300003051757800,10.2061004638671880,34.7309989929199200,352.6109008789062500,488.8291931152344000,10.1657800674438480,30.0557994842529300,65,3,471,447,63,2160376895,2166260776,2191048717,2169434893,700,0,-4,50298
1340553718,6469,17.2299995422363280,10.4785995483398440,34.7202987670898440,355.2448120117187500,482.3460998535156000,10.3671998977661130,29.8775806427001950,67,3,472,449,64,2163179395,2169788068,2196765101,2172328374,1312,0,-5,38868
1340553818,6469,15.1700000762939450,10.9364004135131840,34.7294998168945300,357.9956970214844000,465.4252014160156000,10.8916301727294920,29.5457801818847660,74,3,423,524,62,2168843666,2176283738,2205709151,2177398216,2348,0,-5,45794
1340553920,6468,12.8900003433227540,11.8156003952026370,34.7178001403808600,357.3512878417969000,437.6805114746094000,11.7477903366088870,29.1701507568359380,92,3,596,548,64,2167535130,2172151346,2191804780,2170393403,1333,2,-5,52718
1340554004,6469,11.1800003051757810,11.9997997283935550,34.7192001342773440,362.1783142089844000,429.5097045898437500,11.9991102218627930,28.9097595214843750,99,3,497,575,62,2173861677,2178779674,2198034756,2173420694,3267,0,-4,53867
1340554084,6471,8.8400001525878900,12.5467996597290040,34.7162017822265600,361.6737976074219000,412.7237854003906000,12.5143499374389650,28.6929893493652340,99,3,359,624,64,2239376539,2260868228,2321863450,2239924530,2366,3,-3,35680
1340554147,6469,6.5500001907348630,12.6682996749877930,34.7206001281738300,358.4471130371094000,407.2004089355469000,12.6836004257202150,28.7142906188964840,99,3,217,565,63,2240337737,2252989041,2289187725,2225433673,1882,-14,0,63918
1340554213,6470,3.5799999237060547,13.0034999847412110,34.7196998596191400,354.8515930175781000,396.9887084960937500,12.9961204528808600,28.6840896606445300,99,3,172,530,58,2275561069,2283735400,2306815039,2246108136,720,-2,-1,34398
1340554272,6468,2.0499999523162840,0.0000000000000000,0.0000000000000000,354.0234985351562500,394.1435852050781000,13.0831203460693360,28.6707096099853500,95,3,151,521,62,2306633896,2313403734,2331746390,2273169115,671,11,-3,10354
1340554303,6469,0.7500000000000000,0.0000000000000000,0.0000000000000000,353.8310852050781000,395.0682983398437500,13.0548496246337890,28.6890907287597660,86,3,129,536,58,2468450701,2493780539,2592451743,2500678980,2146,17,4,65491
